Date,TemperatureHighF,TemperatureAvgF,TemperatureLowF,DewpointHighF,DewpointAvgF,DewpointLowF,HumidityHigh,HumidityAvg,HumidityLow,PressureMaxIn,PressureMinIn,WindSpeedMaxMPH,WindSpeedAvgMPH,GustSpeedMaxMPH,PrecipitationSumIn
2013-6-1,90,79,69,69,66,62,84,66,41,30.04,29.93,12,1,18,0.00
2013-6-2,86,76,70,71,67,64,91,74,52,29.95,29.81,12,1,14,0.35
2013-6-3,78,71,67,71,67,64,95,89,71,29.87,29.79,7,0,9,0.34
2013-6-4,74,65,55,65,48,41,93,55,31,30.10,29.87,14,2,16,0.34
2013-6-5,69,62,52,58,50,42,93,66,47,30.21,30.10,10,1,10,0.00
2013-6-6,68,63,59,61,59,57,95,86,71,30.14,29.99,8,1,12,0.04
2013-6-7,69,64,61,68,47,-100,97,86,92,30.00,29.55,9,0,11,3.06
2013-6-8,78,69,58,66,52,-100,97,74,61,30.06,29.52,21,2,21,3.42
2013-6-9,64,63,62,62,61,60,92,91,91,30.09,30.06,0,0,0,0.00
2013-6-12,68,65,64,58,57,54,81,75,61,29.86,29.83,0,0,1,0.00
2013-6-13,73,67,60,68,60,54,94,81,64,29.85,29.40,4,1,14,0.98
2013-6-14,72,61,55,58,54,50,93,77,50,29.91,29.46,6,2,21,0.01
2013-6-15,82,70,58,58,54,50,88,61,33,30.02,29.90,5,2,14,0.01
2013-6-16,86,73,61,68,61,57,86,68,44,30.01,29.80,5,1,17,0.00
2013-6-17,89,75,66,68,65,62,93,74,42,29.93,29.83,4,1,17,0.14
2013-6-18,79,68,64,68,63,61,94,85,62,29.91,29.80,6,0,10,0.92
2013-6-19,77,68,60,64,54,47,93,64,38,30.17,29.85,13,1,13,0.92
2013-6-20,78,68,56,59,54,50,92,63,39,30.28,30.17,12,1,12,0.00
2013-6-21,78,68,57,58,54,49,89,65,39,30.33,30.26,7,0,10,0.00
2013-6-22,81,70,58,63,58,53,95,68,42,30.27,30.15,10,0,12,0.00
2013-6-23,85,74,63,71,65,54,93,73,55,30.21,30.08,10,1,13,0.08
2013-6-24,94,80,72,74,69,60,95,72,41,30.09,29.98,13,1,14,0.09
2013-6-25,93,81,69,72,67,63,90,65,42,30.01,29.83,18,1,18,0.00
2013-6-26,91,80,72,73,66,62,92,65,39,29.88,29.78,11,1,13,0.14
2013-6-27,84,76,72,72,70,68,95,82,63,29.83,29.60,11,1,12,0.01
2013-6-28,89,78,71,72,69,66,89,75,47,29.61,29.49,10,1,14,0.05
2013-6-29,85,75,68,72,68,65,94,81,55,29.72,29.51,13,0,13,0.10
2013-6-30,83,75,69,73,70,66,93,86,71,29.92,29.72,7,0,9,0.04